N430BM KLBB-KROW

Flight info

Callsign N430BM
Flight time N/A
Altitude 1600
Route KLBB KROW
Aircraft BE9L/L-V/N

Departure

Time 2026-04-26 20:12
Airport Lubbock Preston Smith International Airport (KLBB)

Arrival

Time N/A
Airport Roswell Air Center Airport (KROW)
Time Latitude Longitude Altitude Speed Heading
2026-04-26 19:46 33.65900 -101.81636 3261 ft 0 kts 257°
2026-04-26 19:55 33.65883 -101.81658 3260 ft 9 kts 195°
2026-04-26 19:55 33.65839 -101.81660 3261 ft 0 kts 178°
2026-04-26 19:56 33.65819 -101.81659 3262 ft 2 kts 175°
2026-04-26 19:59 33.65805 -101.81657 3262 ft 8 kts 175°
2026-04-26 19:59 33.65779 -101.81663 3262 ft 7 kts 234°
2026-04-26 19:59 33.65777 -101.81666 3262 ft 0 kts 237°
2026-04-26 20:02 33.65776 -101.81667 3262 ft 1 kts 236°
2026-04-26 20:02 33.65772 -101.81672 3254 ft 5 kts 212°
2026-04-26 20:03 33.65647 -101.81672 3261 ft 3 kts 91°
2026-04-26 20:03 33.65706 -101.81673 3262 ft 16 kts 355°
2026-04-26 20:03 33.65864 -101.81679 3261 ft 30 kts
2026-04-26 20:03 33.65955 -101.81666 3260 ft 0 kts 342°
2026-04-26 20:04 33.65957 -101.81667 3260 ft 2 kts
2026-04-26 20:04 33.65983 -101.81606 3262 ft 1 kts 103°
2026-04-26 20:04 33.65990 -101.81560 3262 ft 0 kts 340°
2026-04-26 20:05 33.65991 -101.81560 3262 ft 0 kts 338°
2026-04-26 20:06 33.66037 -101.81588 3264 ft 15 kts 327°
2026-04-26 20:06 33.66052 -101.81601 3262 ft 0 kts 322°
2026-04-26 20:06 33.66055 -101.81547 3264 ft 23 kts 107°
2026-04-26 20:07 33.66035 -101.81245 3258 ft 47 kts 90°
2026-04-26 20:07 33.66038 -101.80791 3257 ft 61 kts 90°
2026-04-26 20:07 33.66040 -101.80267 3263 ft 51 kts 90°
2026-04-26 20:07 33.66043 -101.79756 3260 ft 23 kts 83°
2026-04-26 20:08 33.66099 -101.79682 3260 ft 0 kts 357°
2026-04-26 20:11 33.66102 -101.79682 3260 ft 3 kts 358°
2026-04-26 20:11 33.66185 -101.79687 3260 ft 22 kts 348°
2026-04-26 20:11 33.66233 -101.79876 3262 ft 29 kts 268°
2026-04-26 20:12 33.66230 -101.80638 3259 ft 83 kts 267°
2026-04-26 20:12 33.66240 -101.81490 3347 ft 115 kts 264°
2026-04-26 20:12 33.66252 -101.82490 3618 ft 129 kts 266°
2026-04-26 20:12 33.66228 -101.83594 3905 ft 136 kts 263°
2026-04-26 20:13 33.66195 -101.84749 4113 ft 143 kts 263°
2026-04-26 20:13 33.66137 -101.85926 4395 ft 140 kts 262°
2026-04-26 20:13 33.66160 -101.87045 4890 ft 131 kts 267°
2026-04-26 20:13 33.66202 -101.88135 5283 ft 130 kts 264°
2026-04-26 20:14 33.66239 -101.89187 5750 ft 121 kts 266°
2026-04-26 20:14 33.66231 -101.90190 6056 ft 129 kts 262°
2026-04-26 20:14 33.66173 -101.91386 6134 ft 147 kts 260°
2026-04-26 20:14 33.66038 -101.92658 6153 ft 165 kts 258°
2026-04-26 20:15 33.65889 -101.94072 5984 ft 180 kts 263°
2026-04-26 20:15 33.65877 -101.95586 5940 ft 180 kts 265°
2026-04-26 20:15 33.65897 -101.97043 5937 ft 171 kts 265°
2026-04-26 20:15 33.65909 -101.98451 5931 ft 166 kts 265°
2026-04-26 20:16 33.65913 -101.99825 5932 ft 163 kts 265°
2026-04-26 20:16 33.65916 -102.01191 5920 ft 164 kts 265°
2026-04-26 20:16 33.65917 -102.02559 5913 ft 163 kts 264°
2026-04-26 20:16 33.65942 -102.03916 5909 ft 162 kts 265°
2026-04-26 20:17 33.66001 -102.05278 5907 ft 165 kts 268°
2026-04-26 20:17 33.65840 -102.06578 5911 ft 157 kts 231°
2026-04-26 20:17 33.64928 -102.07122 6222 ft 143 kts 200°
2026-04-26 20:17 33.63988 -102.07295 6544 ft 138 kts 188°
2026-04-26 20:18 33.63034 -102.07168 6872 ft 139 kts 175°
2026-04-26 20:18 33.62123 -102.06758 7184 ft 137 kts 174°
2026-04-26 20:18 33.61295 -102.06890 7527 ft 117 kts 202°
2026-04-26 20:18 33.60584 -102.07310 7862 ft 112 kts 220°
2026-04-26 20:19 33.60017 -102.07947 8215 ft 113 kts 233°
2026-04-26 20:19 33.59623 -102.08770 8586 ft 116 kts 246°
2026-04-26 20:19 33.59521 -102.09746 8960 ft 121 kts 262°
2026-04-26 20:19 33.59497 -102.10752 9342 ft 120 kts 262°
2026-04-26 20:20 33.59473 -102.11754 9710 ft 120 kts 262°
2026-04-26 20:20 33.59447 -102.12751 10047 ft 120 kts 262°
2026-04-26 20:20 33.59420 -102.13746 10402 ft 122 kts 262°
2026-04-26 20:20 33.59358 -102.14773 10695 ft 125 kts 259°
2026-04-26 20:21 33.59270 -102.15826 10989 ft 128 kts 259°
2026-04-26 20:21 33.59176 -102.16902 11287 ft 131 kts 259°
2026-04-26 20:21 33.59071 -102.18001 11588 ft 133 kts 257°
2026-04-26 20:21 33.58811 -102.19052 12013 ft 132 kts 256°
2026-04-26 20:22 33.58655 -102.20135 12328 ft 132 kts 258°
2026-04-26 20:22 33.58547 -102.21227 12639 ft 132 kts 262°
2026-04-26 20:22 33.58481 -102.22318 12950 ft 133 kts 262°
2026-04-26 20:22 33.58414 -102.23428 13267 ft 134 kts 262°
2026-04-26 20:23 33.58350 -102.24542 13585 ft 134 kts 262°
2026-04-26 20:23 33.58285 -102.25648 13871 ft 132 kts 262°
2026-04-26 20:23 33.58222 -102.26747 14154 ft 132 kts 262°
2026-04-26 20:23 33.58158 -102.27838 14433 ft 131 kts 262°
2026-04-26 20:24 33.58096 -102.28924 14713 ft 130 kts 262°
2026-04-26 20:24 33.58033 -102.30001 14995 ft 129 kts 262°
2026-04-26 20:24 33.57972 -102.31059 15276 ft 129 kts 262°
2026-04-26 20:24 33.57910 -102.32124 15565 ft 128 kts 261°
2026-04-26 20:25 33.57848 -102.33187 15852 ft 127 kts 261°
2026-04-26 20:25 33.57805 -102.33905 15941 ft 134 kts 262°
2026-04-26 20:25 33.57714 -102.35470 16012 ft 147 kts 262°
2026-04-26 20:25 33.57641 -102.36728 16024 ft 155 kts 262°
2026-04-26 20:26 33.57564 -102.38051 16023 ft 164 kts 262°
2026-04-26 20:26 33.57485 -102.39432 16019 ft 167 kts 262°
2026-04-26 20:26 33.57405 -102.40808 16015 ft 169 kts 262°
2026-04-26 20:26 33.57317 -102.42284 16017 ft 185 kts 263°
2026-04-26 20:27 33.57225 -102.43864 16012 ft 194 kts 263°
2026-04-26 20:27 33.57129 -102.45509 16014 ft 201 kts 263°
2026-04-26 20:27 33.57030 -102.47196 16016 ft 205 kts 263°
2026-04-26 20:27 33.56928 -102.48909 16009 ft 207 kts 263°
2026-04-26 20:28 33.56825 -102.50645 15995 ft 209 kts 263°
2026-04-26 20:28 33.56721 -102.52391 15985 ft 210 kts 263°
2026-04-26 20:28 33.56618 -102.54121 15978 ft 211 kts 263°
2026-04-26 20:28 33.56513 -102.55875 15969 ft 211 kts 263°
2026-04-26 20:29 33.56407 -102.57634 15960 ft 211 kts 263°
2026-04-26 20:29 33.56301 -102.59391 15949 ft 212 kts 263°
2026-04-26 20:29 33.56195 -102.61151 15940 ft 212 kts 263°
2026-04-26 20:29 33.56088 -102.62914 15926 ft 212 kts 263°
2026-04-26 20:30 33.55981 -102.64681 15920 ft 212 kts 263°
2026-04-26 20:30 33.55873 -102.66448 15911 ft 213 kts 263°
2026-04-26 20:30 33.55765 -102.68216 15901 ft 213 kts 263°
2026-04-26 20:30 33.55655 -102.69984 15892 ft 212 kts 263°
2026-04-26 20:31 33.55500 -102.71715 15878 ft 212 kts 260°
2026-04-26 20:31 33.55307 -102.73468 15867 ft 212 kts 260°
2026-04-26 20:31 33.55129 -102.75220 15858 ft 212 kts 261°
2026-04-26 20:31 33.54949 -102.76972 15846 ft 211 kts 259°
2026-04-26 20:32 33.54709 -102.78710 15842 ft 211 kts 258°
2026-04-26 20:32 33.54468 -102.80448 15832 ft 211 kts 258°
2026-04-26 20:32 33.54241 -102.82188 15833 ft 211 kts 259°
2026-04-26 20:32 33.54017 -102.83927 15832 ft 211 kts 259°
2026-04-26 20:33 33.53791 -102.85668 15830 ft 211 kts 258°
2026-04-26 20:33 33.53564 -102.87404 15830 ft 211 kts 258°
2026-04-26 20:33 33.53337 -102.89142 15828 ft 211 kts 258°
2026-04-26 20:33 33.53113 -102.90856 15830 ft 211 kts 258°
2026-04-26 20:34 33.52886 -102.92591 15835 ft 211 kts 258°
2026-04-26 20:34 33.52658 -102.94326 15835 ft 211 kts 258°
2026-04-26 20:34 33.52430 -102.96065 15833 ft 211 kts 258°
2026-04-26 20:34 33.52202 -102.97803 15835 ft 211 kts 258°
2026-04-26 20:35 33.51973 -102.99541 15831 ft 211 kts 258°
2026-04-26 20:35 33.51744 -103.01280 15831 ft 211 kts 258°
2026-04-26 20:35 33.51515 -103.03020 15831 ft 211 kts 258°
2026-04-26 20:35 33.51285 -103.04759 15831 ft 211 kts 258°
2026-04-26 20:36 33.51059 -103.06475 15831 ft 211 kts 258°
2026-04-26 20:36 33.50828 -103.08215 15832 ft 212 kts 258°
2026-04-26 20:36 33.50598 -103.09957 15831 ft 212 kts 258°
2026-04-26 20:36 33.50367 -103.11704 15832 ft 212 kts 258°
2026-04-26 20:37 33.50135 -103.13451 15838 ft 212 kts 258°
2026-04-26 20:37 33.49903 -103.15193 15834 ft 211 kts 259°
2026-04-26 20:37 33.49673 -103.16925 15834 ft 210 kts 259°
2026-04-26 20:37 33.49443 -103.18653 15834 ft 210 kts 259°
2026-04-26 20:38 33.49214 -103.20375 15833 ft 210 kts 259°
2026-04-26 20:38 33.48983 -103.22101 15833 ft 210 kts 259°
2026-04-26 20:38 33.48756 -103.23800 15832 ft 210 kts 259°
2026-04-26 20:38 33.48526 -103.25525 15831 ft 210 kts 259°
2026-04-26 20:39 33.48295 -103.27250 15830 ft 210 kts 259°
2026-04-26 20:39 33.48064 -103.28974 15830 ft 209 kts 259°
2026-04-26 20:39 33.47833 -103.30695 15830 ft 209 kts 258°
2026-04-26 20:39 33.47600 -103.32430 15657 ft 213 kts 259°
2026-04-26 20:40 33.47370 -103.34155 15409 ft 207 kts 259°
2026-04-26 20:40 33.47143 -103.35843 15164 ft 204 kts 258°
2026-04-26 20:40 33.46918 -103.37510 14919 ft 202 kts 258°
2026-04-26 20:40 33.46696 -103.39140 14680 ft 200 kts 259°
2026-04-26 20:41 33.46547 -103.40794 14444 ft 200 kts 262°
2026-04-26 20:41 33.46444 -103.42450 14208 ft 199 kts 262°
2026-04-26 20:41 33.46327 -103.44101 13969 ft 199 kts 262°
2026-04-26 20:41 33.46200 -103.45747 13743 ft 198 kts 262°
2026-04-26 20:42 33.46073 -103.47389 13511 ft 198 kts 262°
2026-04-26 20:42 33.45947 -103.49029 13263 ft 198 kts 262°
2026-04-26 20:42 33.45821 -103.50674 13007 ft 199 kts 261°
2026-04-26 20:42 33.45693 -103.52335 12752 ft 201 kts 261°
2026-04-26 20:43 33.45567 -103.53979 12504 ft 201 kts 261°
2026-04-26 20:43 33.45438 -103.55646 12253 ft 202 kts 261°
2026-04-26 20:43 33.45308 -103.57325 12003 ft 203 kts 261°
2026-04-26 20:43 33.45179 -103.59004 11759 ft 203 kts 261°
2026-04-26 20:44 33.45048 -103.60684 11506 ft 203 kts 261°
2026-04-26 20:44 33.44917 -103.62370 11268 ft 204 kts 261°
2026-04-26 20:44 33.44785 -103.64066 11027 ft 205 kts 261°
2026-04-26 20:44 33.44654 -103.65760 10790 ft 205 kts 261°
2026-04-26 20:45 33.44522 -103.67452 10552 ft 204 kts 260°
2026-04-26 20:45 33.44392 -103.69116 10323 ft 203 kts 261°
2026-04-26 20:45 33.44260 -103.70798 10091 ft 201 kts 260°
2026-04-26 20:45 33.44134 -103.72427 9854 ft 192 kts 261°
2026-04-26 20:46 33.44011 -103.74000 9612 ft 187 kts 260°
2026-04-26 20:46 33.43889 -103.75533 9363 ft 183 kts 260°
2026-04-26 20:46 33.43769 -103.77041 9102 ft 181 kts 260°
2026-04-26 20:46 33.43652 -103.78535 8835 ft 179 kts 259°
2026-04-26 20:47 33.43536 -103.80004 8589 ft 176 kts 259°
2026-04-26 20:47 33.43459 -103.80966 8418 ft 176 kts 259°
2026-04-26 20:47 33.43305 -103.82898 8088 ft 176 kts 260°
2026-04-26 20:47 33.43189 -103.84354 7842 ft 175 kts 260°
2026-04-26 20:48 33.43074 -103.85807 7605 ft 176 kts 259°
2026-04-26 20:48 33.42959 -103.87255 7368 ft 174 kts 259°
2026-04-26 20:48 33.42844 -103.88689 7130 ft 172 kts 260°
2026-04-26 20:48 33.42731 -103.90105 6898 ft 170 kts 260°
2026-04-26 20:49 33.42617 -103.91524 6664 ft 172 kts 260°
2026-04-26 20:49 33.42502 -103.92955 6418 ft 173 kts 260°
2026-04-26 20:49 33.42389 -103.94377 6201 ft 170 kts 259°
2026-04-26 20:49 33.42278 -103.95758 5972 ft 168 kts 259°
2026-04-26 20:50 33.42171 -103.97114 5880 ft 159 kts 258°
2026-04-26 20:50 33.42068 -103.98391 5832 ft 150 kts 259°
2026-04-26 20:50 33.41970 -103.99595 5819 ft 142 kts 258°
2026-04-26 20:50 33.41875 -104.00744 5816 ft 137 kts 259°
2026-04-26 20:51 33.41783 -104.01872 5818 ft 136 kts 260°
2026-04-26 20:51 33.41685 -104.03028 5823 ft 150 kts 259°
2026-04-26 20:51 33.41573 -104.04362 5846 ft 170 kts 259°
2026-04-26 20:51 33.41456 -104.05819 5843 ft 181 kts 260°
2026-04-26 20:52 33.41336 -104.07326 5828 ft 184 kts 260°
2026-04-26 20:52 33.41223 -104.08805 5825 ft 173 kts 259°
2026-04-26 20:52 33.41108 -104.10209 5810 ft 168 kts 259°
2026-04-26 20:52 33.40993 -104.11592 5806 ft 166 kts 259°
2026-04-26 20:53 33.40907 -104.12965 5815 ft 165 kts 265°
2026-04-26 20:53 33.41104 -104.14329 5820 ft 166 kts 273°
2026-04-26 20:53 33.41330 -104.15675 5825 ft 165 kts 273°
2026-04-26 20:53 33.41549 -104.17020 5833 ft 165 kts 273°
2026-04-26 20:54 33.41772 -104.18359 5842 ft 164 kts 274°
2026-04-26 20:54 33.41987 -104.19638 5843 ft 154 kts 273°
2026-04-26 20:54 33.42193 -104.20880 5848 ft 150 kts 272°
2026-04-26 20:54 33.42392 -104.22088 5851 ft 146 kts 273°
2026-04-26 20:55 33.42588 -104.23271 5853 ft 143 kts 272°
2026-04-26 20:55 33.42779 -104.24420 5863 ft 139 kts 272°
2026-04-26 20:55 33.42965 -104.25541 5860 ft 135 kts 272°
2026-04-26 20:55 33.43145 -104.26636 5859 ft 133 kts 272°
2026-04-26 20:56 33.43323 -104.27715 5864 ft 132 kts 272°
2026-04-26 20:56 33.43501 -104.28795 5868 ft 133 kts 272°
2026-04-26 20:56 33.43679 -104.29875 5873 ft 135 kts 272°
2026-04-26 20:56 33.43861 -104.30974 5885 ft 135 kts 272°
2026-04-26 20:57 33.44044 -104.32075 5888 ft 135 kts 273°
2026-04-26 20:57 33.44220 -104.33170 5881 ft 131 kts 269°
2026-04-26 20:57 33.44168 -104.34250 5772 ft 132 kts 253°
2026-04-26 20:57 33.43829 -104.35291 5657 ft 138 kts 240°
2026-04-26 20:58 33.43197 -104.36201 5528 ft 145 kts 229°
2026-04-26 20:58 33.42475 -104.37059 5411 ft 148 kts 228°
2026-04-26 20:58 33.41774 -104.37905 5377 ft 141 kts 227°
2026-04-26 20:58 33.41085 -104.38727 5354 ft 139 kts 228°
2026-04-26 20:59 33.40423 -104.39526 5378 ft 131 kts 229°
2026-04-26 20:59 33.39787 -104.40290 5383 ft 130 kts 230°
2026-04-26 20:59 33.39149 -104.41060 5378 ft 130 kts 230°
2026-04-26 20:59 33.38520 -104.41813 5377 ft 127 kts 229°
2026-04-26 21:00 33.37914 -104.42536 5354 ft 119 kts 230°
2026-04-26 21:00 33.37332 -104.43237 5278 ft 121 kts 228°
2026-04-26 21:00 33.36734 -104.43935 5135 ft 122 kts 226°
2026-04-26 21:00 33.36098 -104.44591 4963 ft 116 kts 225°
2026-04-26 21:01 33.35528 -104.45214 4854 ft 107 kts 229°
2026-04-26 21:01 33.35027 -104.45841 4754 ft 102 kts 231°
2026-04-26 21:01 33.34520 -104.46430 4592 ft 103 kts 229°
2026-04-26 21:01 33.34057 -104.47042 4488 ft 92 kts 231°
2026-04-26 21:02 33.33636 -104.47611 4425 ft 94 kts 228°
2026-04-26 21:02 33.33183 -104.48211 4276 ft 96 kts 225°
2026-04-26 21:02 33.32730 -104.48726 4147 ft 89 kts 225°
2026-04-26 21:02 33.32287 -104.49217 3995 ft 88 kts 229°
2026-04-26 21:03 33.31843 -104.49724 3955 ft 89 kts 229°
2026-04-26 21:03 33.31406 -104.50337 3796 ft 101 kts 226°
2026-04-26 21:03 33.30913 -104.50942 3670 ft 98 kts 218°
2026-04-26 21:03 33.30460 -104.51463 3634 ft 82 kts 222°
2026-04-26 21:04 33.30272 -104.51684 3643 ft 70 kts 225°